Nome, AK

5:08 PM AKDT on July 20, 2017 (GMT -0800)
Nome

Weather History for PAOM - February, 2013

Change the Weather History Date:

Monday, February 4, 2013

  Actual Average Record
Temperature  
Mean Temperature 20 °F 6 °F  
Max Temperature 21 °F 14 °F 40 °F (1912)
Min Temperature 19 °F -2 °F -41 °F (1947)
Degree Days  
Heating Degree Days 45 59  
Month to date heating degree days 211 237  
Since 1 July heating degree days 7929 7905  
Cooling Degree Days 0 0  
Month to date cooling degree days 0 0  
Year to date cooling degree days 0 0  
Moisture  
Dew Point 16 °F    
Average Humidity 0    
Maximum Humidity 0    
Minimum Humidity 0    
Precipitation  
Precipitation T in 0.03 in 1.20 in (1931)
Month to date precipitation 0.04 0.13  
Year to date precipitation 1.20 1.07  
Snow  
Snow 0.10 in 0.40 in 10.00 in (1931)
Month to date snowfall 0.7 1.7  
Since 1 July snowfall 34.5 46.2  
Snow Depth 26.00 in    
Sea Level Pressure  
Sea Level Pressure 29.56 in    
Wind  
Wind Speed 3 mph (NNE)    
Max Wind Speed 16 mph    
Max Gust Speed 20 mph    
Visibility 10 miles    
Events      
T = Trace of Precipitation, MM = Missing Value Source: NWS Daily Summary

Daily Weather History Graph

Daily Weather History Graph

Search for Another Location

Airport or City:

Trip Planner

Search our weather history database for the weather conditions in past years. The results will help you decide how hot, cold, wet, or windy it might be!

Date:

Astronomy

Feb. 04, 2013 Rise Set
Actual Time 10:33 AM AKST 5:58 PM AKST
Civil Twilight 9:37 AM AKST 6:55 PM AKST
Nautical Twilight 8:38 AM AKST 7:54 PM AKST
Astronomical Twilight 7:42 AM AKST 8:50 PM AKST
Moon 6:05 AM AKST (2/4) 11:48 AM AKST (2/4)
Length of Visible Light 9h 17m
Length of Day
7h 25m
Waning Crescent, 35% of the Moon is Illuminated
Feb 4
Waning Crescent
Feb 9
New
Feb 17
First Quarter
Feb 25
Full
Mar 4
Last Quarter

Hourly Weather History & Observations

Time (AKST) Temp. Windchill Dew Point Humidity Pressure Visibility Wind Dir Wind Speed Gust Speed Precip Events Conditions
2:02 AM 19.4 °F - 17.6 °F 93% 29.53 in 10.0 mi Calm Calm - N/A   Overcast
3:53 AM 19.9 °F - 18.0 °F 92% 29.54 in 10.0 mi Calm Calm - N/A   Overcast
4:11 AM 19.4 °F - 17.6 °F 93% 29.53 in 10.0 mi Calm Calm - N/A   Overcast
4:24 AM 19.4 °F - 17.6 °F 93% 29.53 in 10.0 mi Calm Calm - N/A   Overcast
4:53 AM 19.0 °F - 18.0 °F 96% 29.54 in 10.0 mi Calm Calm - N/A   Overcast
5:53 AM 19.9 °F - 18.0 °F 92% 29.54 in 10.0 mi Calm Calm - N/A   Overcast
6:53 AM 19.0 °F - 18.0 °F 96% 29.55 in 10.0 mi Calm Calm - N/A   Overcast
7:53 AM 19.9 °F - 18.0 °F 92% 29.55 in 10.0 mi Calm Calm - N/A   Overcast
8:53 AM 19.0 °F - 17.1 °F 92% 29.55 in 10.0 mi Calm Calm - N/A   Overcast
9:53 AM 19.9 °F - 18.0 °F 92% 29.57 in 10.0 mi Calm Calm - N/A   Overcast
10:53 AM 19.9 °F 14.9 °F 17.1 °F 89% 29.57 in 10.0 mi West 3.5 mph - N/A   Overcast
11:53 AM 19.9 °F - 16.0 °F 85% 29.56 in 10.0 mi Calm Calm - N/A   Overcast
12:53 PM 19.9 °F - 16.0 °F 85% 29.58 in 10.0 mi Calm Calm - N/A   Overcast
1:07 PM 19.4 °F 14.3 °F 15.8 °F 86% 29.58 in 10.0 mi North 3.5 mph - N/A   Overcast
1:53 PM 19.9 °F - 16.0 °F 85% 29.58 in 10.0 mi Calm Calm - N/A   Overcast
2:53 PM 19.9 °F 13.4 °F 14.0 °F 78% 29.58 in 10.0 mi ENE 4.6 mph - N/A   Overcast
3:53 PM 19.9 °F 9.3 °F 14.0 °F 78% 29.58 in 10.0 mi NNE 9.2 mph - N/A   Overcast
4:53 PM 19.9 °F 6.7 °F 12.9 °F 74% 29.57 in 10.0 mi NE 13.8 mph - N/A   Overcast
5:12 PM 19.4 °F 5.5 °F 14.0 °F 80% 29.57 in 10.0 mi NE 15.0 mph - N/A   Overcast
5:53 PM 21.0 °F 9.3 °F 15.1 °F 78% 29.57 in 10.0 mi NE 11.5 mph - N/A   Overcast
6:53 PM 19.9 °F 7.3 °F 12.9 °F 74% 29.57 in 10.0 mi NE 12.7 mph - N/A   Overcast
7:53 PM 21.0 °F 8.1 °F 14.0 °F 74% 29.57 in 10.0 mi NE 13.8 mph - N/A   Overcast
8:53 PM 21.0 °F 8.6 °F 15.1 °F 78% 29.57 in 10.0 mi NE 12.7 mph - N/A   Overcast
9:53 PM 19.0 °F 6.8 °F 12.9 °F 77% 29.58 in 10.0 mi NE 11.5 mph - N/A   Overcast
10:53 PM 19.9 °F 7.3 °F 14.0 °F 78% 29.58 in 10.0 mi NE 12.7 mph - N/A   Overcast
11:53 PM 21.0 °F 13.4 °F 14.0 °F 74% 29.59 in 10.0 mi North 5.8 mph - N/A   Overcast